MST,Max TemperatureF,Mean TemperatureF,Min TemperatureF,Max Dew PointF,MeanDew PointF,Min DewpointF,Max Humidity, Mean Humidity, Min Humidity, Max Sea Level PressureIn, Mean Sea Level PressureIn, Min Sea Level PressureIn, Max VisibilityMiles, Mean VisibilityMiles, Min VisibilityMiles, Max Wind SpeedMPH, Mean Wind SpeedMPH, Max Gust SpeedMPH,PrecipitationIn, CloudCover, Events, WindDirDegrees
2012-11-1,63,50,37,38,33,27,86,60,26,30.02,29.94,29.89,10,10,10,13,5,24,0.00,2,Rain,346
2012-11-2,59,45,33,38,31,24,92,66,28,30.17,30.11,30.00,10,10,10,5,1,,0.00,1,,323
2012-11-3,60,44,27,32,29,24,89,66,28,30.31,30.23,30.16,10,10,10,5,1,,0.00,0,,39
2012-11-4,63,46,30,35,32,29,92,66,29,30.44,30.36,30.27,10,10,10,8,1,,0.00,3,,316
2012-11-5,61,46,30,38,33,28,100,75,38,30.51,30.40,30.32,10,9,0,6,1,,0.00,1,Fog,261
2012-11-6,63,46,28,38,32,26,100,80,37,30.41,30.32,30.18,10,8,0,5,0,,0.00,1,Fog,26
2012-11-7,66,47,28,35,30,26,100,71,24,30.17,30.05,29.86,10,9,2,8,1,,0.00,1,,158
2012-11-8,68,48,28,36,29,22,89,56,23,29.83,29.64,29.39,10,10,10,22,4,28,0.00,1,,176
2012-11-9,60,45,30,39,32,28,100,92,33,29.73,29.66,29.35,10,4,1,30,10,39,0.44,8,Rain-Snow,300
2012-11-10,32,29,26,29,25,18,96,86,56,30.03,29.78,29.67,10,7,1,12,3,,0.03,7,Snow,273
2012-11-11,30,28,24,21,17,14,75,64,52,30.51,30.31,30.05,10,10,8,15,6,17,0.00,6,Snow,283
2012-11-12,34,26,19,23,19,16,88,71,56,30.58,30.51,30.44,10,10,10,6,1,,0.00,4,,213
2012-11-13,43,36,28,27,25,21,85,69,45,30.44,30.38,30.30,10,10,10,6,1,,0.00,5,,233
2012-11-14,43,36,28,33,29,24,92,79,60,30.32,30.29,30.25,10,10,9,6,1,,0.00,7,,264
2012-11-15,46,36,26,34,29,25,100,83,59,30.38,30.30,30.19,10,7,0,4,1,,0.00,2,Fog,63
2012-11-16,48,36,24,36,32,25,100,82,54,30.17,30.13,30.07,10,8,2,7,2,,0.00,4,,11
2012-11-17,55,46,36,43,38,34,93,77,51,30.09,30.00,29.90,10,9,4,16,2,,0.09,8,Rain,166
2012-11-18,50,44,37,46,40,36,100,86,66,30.14,30.01,29.87,10,8,2,25,6,37,0.54,8,Rain-Thunderstorm,281
2012-11-19,54,46,34,41,37,32,100,83,47,30.25,30.21,30.14,10,10,9,10,3,,0.01,4,Rain,100
2012-11-20,52,41,30,39,34,28,92,82,61,30.26,30.15,30.02,10,10,10,6,2,,0.00,0,,49
2012-11-21,57,45,33,38,32,25,92,63,30,30.15,29.99,29.92,10,10,10,22,6,32,0.01,4,Rain,9
2012-11-22,46,37,28,33,24,18,88,65,33,30.57,30.42,30.16,10,10,10,8,3,,0.00,1,,188
2012-11-23,45,33,21,27,23,18,89,74,42,30.61,30.51,30.38,10,10,10,5,1,,0.00,0,,186
2012-11-24,52,36,21,33,25,19,92,75,43,30.38,30.26,30.07,10,10,10,7,1,,0.00,0,,315
2012-11-25,48,37,26,34,29,23,89,76,52,30.21,30.07,29.99,10,10,10,10,3,,0.00,4,Rain,315
2012-11-26,44,32,21,28,24,19,89,78,53,30.36,30.30,30.22,10,10,10,5,1,,0.00,0,,140
2012-11-27,46,34,21,30,24,17,100,81,48,30.41,30.31,30.26,10,9,1,7,2,,0.00,1,,295
2012-11-28,50,37,24,32,27,22,92,76,44,30.28,30.15,30.00,10,9,6,6,1,,0.00,1,,106
2012-11-29,55,44,32,32,30,26,82,59,37,30.14,30.05,29.98,10,10,10,9,3,16,0.00,2,,85
2012-11-30,54,49,44,42,37,33,83,65,51,29.95,29.88,29.81,10,10,7,17,9,26,0.22,7,Rain,177